JIADING 1 (43713 NORAD) Tracking and Keplerian Element Data

This shows tracking and keplerian element data for the satellite.

Feedback or suggestion? Click here.




ElementValue
Catalog43713
NameJIADING 1
Epoch Orbit30969
Epoch Day160.17959291
Epoch Year2024
RAAN183.2748
Inclination97.3572
Eccentricity0.0004909
Argument of Perigee264.0155
Mean Anonmoly96.0539
Mean Motion15.54433432
Decay Rate0.00083011
L11 43713U 18094D 24160.17959291 .00083011 00000+0 12539-2 0 9990
L22 43713 97.3572 183.2748 0004909 264.0155 96.0539 15.54433432309694



Live tracking and technical data element details for JIADING 1 (NORAD 43713). JIADING 1 can be tracked NOW for your location showing map with azimuth and elevation plus other details from your city location.







IsCatalogInMostPopularTable: catalog: 43713, numindb: 340
Update: records affected: 1



GetName: 43713 JIADING 1

Hit Count: updated at: Sat, 17 May 2025 08:53:34 GMT